SCP
0 0 0 0 0 0 0 0 0 0 0 0 0 0 0 0 0 0 0 0 0 0 0 0 0 0 0 0 0 0 -0 -0 -0 0 0 0 0 0 0 0 0 0 0
0 0 0 0 0 0 0 0 0 0 0 0 0 0 0 0 0 0 0 0 0 0 0 0 0 0 0 0 0 0 -0 -0 -0 0 0 0 0 0 0 0 0 0 0
0 0 0 0 0 0 0 0 0 0 0 0 0 0 0 0 0 0 0 0 0 0 0 0 0 0 0 0 0 0 -0 -0 -0 -0 0 0 0 0 0 0 0 0 0
0 0 0 0 0 0 0 0 0 0 0 0 0 0 0 0 0 0 0 0 0 0 0 0 0 0 0 0 0 0 -0 -0 -0 -0 0 0 0 0 0 0 0 0 0
0 0 0 0 0 0 0 0 0 0 0 0 0 0 0 0 0 0 0 0 0 0 0 0 0 0 0 0 0 0 0 -0 -0 -0 0 0 0 0 0 0 0 0 0
0 0 0 0 0 0 0 0 0 0 0 0 0 0 0 0 0 0 0 0 0 0 0 0 0 0 0 0 0 0 0 0 -0 -0 0 0 0 0 0 0 0 0 0
0 0 0 0 0 0 0 0 0 0 0 0 0 0 0 0 0 0 0 0 0 0 0 0 0 0 0 0 0 0 0 0 0 0 0 0 0 0 0 0 0 0 0
0 0 0 0 0 0 0 0 0 0 0 0 0 0 0 0 0 0 0 0 0 0 0 0 0 0 0 0 0 0 0 0 0 0 0 0 0 0 0 0 0 0 0
0 0 0 0 0 0 0 0 0 0 0 0 0 0 0 0 0 0 0 0 0 0 0 0 0 0 0 0 0 0 -0 -0 0 0 0 0 0 0 0 0 0 0 0
0 0 0 0 0 0 0 0 0 0 0 0 0 0 0 0 0 0 0 0 0 0 0 0 0 0 0 0 0 0 0 0 0 0 0 0 0 0 0 0 0 0 0
0 0 0 0 0 0 0 0 0 0 0 0 0 0 0 0 0 0 0 0 0 0 0 0 0 0 0 0 0 0 0 0 0 -0 -0 -0 0 0 0 0 0 0 0
0 0 0 0 0 0 0 0 0 0 0 0 0 0 0 0 0 0 0 0 0 0 0 0 0 0 0 0 0 0 0 0 0 -0 -0 -0 0 0 0 0 0 0 0
0 0 0 0 0 0 0 0 0 0 0 0 0 0 0 0 0 0 0 0 0 0 0 0 0 0 0 0 0 0 0 0 0 0 -0 -0 0 0 0 0 0 0 0
0 0 0 0 0 0 0 0 0 0 0 0 0 0 0 0 0 0 0 0 0 0 0 0 0 0 0 0 0 0 0 0 0 0 0 0 0 0 0 0 0 0 0
0 0 0 0 0 0 0 0 0 0 0 0 0 0 0 0 0 0 0 0 0 0 0 0 0 0 0 0 0 0 0 0 0 0 0 0 0 0 0 0 0 0 0
0 0 0 0 0 0 0 0 0 0 0 0 0 0 0 0 0 0 0 0 0 0 0 0 0 0 0 0 0 0 0 0 0 0 0 0 0 0 0 0 0 0 0
0 0 0 0 0 0 0 0 0 0 0 0 0 0 0 0 0 0 0 0 0 0 0 0 0 0 0 0 0 0 0 0 0 0 0 0 0 0 0 0 0 0 0
0 0 0 0 0 0 0 0 0 0 0 0 0 0 0 0 0 0 0 0 0 0 0 0 0 0 0 0 0 0 0 0 0 0 0 0 0 0 0 0 0 0 0
0 0 0 0 0 0 0 0 0 0 0 0 0 0 0 0 0 0 0 0 0 0 0 0 0 0 0 0 0 0 0 0 0 0 0 0 0 0 0 0 0 0 0
0 0 0 0 0 0 0 0 0 0 0 0 0 0 0 0 0 0 0 0 0 0 0 0 0 0 0 0 0 0 0 0 0 0 0 0 0 0 0 0 0 0 0
0 0 0 0 0 0 0 0 0 0 0 0 0 0 0 0 0 0 0 0 0 0 0 0 0 0 0 0 0 0 0 0 0 0 0 0 0 0 0 0 0 0 0
0 0 0 0 0 0 0 0 0 0 0 0 0 0 0 0 0 0 0 0 0 0 0 0 0 0 0 0 0 0 0 0 0 0 0 0 0 0 0 0 0 0 0
0 0 0 0 0 0 0 0 0 0 0 0 0 0 0 0 0 0 0 0 0 0 0 0 0 0 0 0 0 0 0 0 0 0 0 0 0 0 0 0 0 0 0
0 0 0 0 0 0 0 0 0 0 0 0 0 0 0 0 0 0 0 0 0 0 0 0 0 0 0 0 0 0 0 0 0 0 0 0 0 0 0 0 0 0 0
0 0 0 0 0 0 0 0 0 0 0 0 0 0 0 0 0 0 0 0 0 0 0 0 0 0 0 0 0 0 0 0 0 0 0 0 0 0 0 0 0 0 0
0 0 0 0 0 0 0 0 0 0 0 0 0 0 0 0 0 0 0 0 0 0 0 0 0 0 0 0 0 0 0 0 0 0 0 0 0 0 0 0 0 0 0
Wind_Speed
4 4 4 3 3 4 3 4 3 3 3 3 3 2 2 1 1 1 1 1 1 1 1 1 1 1 1 1 1 1 1 1 3 4 3 3 3 4 4 4 4 4 5
3 4 4 3 3 3 3 3 3 3 3 3 3 2 2 1 1 1 2 2 2 2 1 1 2 1 1 1 1 2 2 2 3 5 4 3 4 4 4 4 5 5 4
3 4 4 3 3 3 3 3 3 3 2 2 2 2 2 1 1 1 2 2 2 2 2 2 2 2 2 2 2 2 2 2 2 3 4 3 3 3 3 4 5 4 5
3 3 3 3 3 3 3 3 3 3 2 2 2 2 2 2 1 1 1 1 2 2 2 2 2 2 3 3 3 3 3 3 3 3 4 4 4 3 3 3 4 3 4
3 3 3 3 3 3 3 3 3 2 2 2 2 1 1 2 2 2 2 2 2 2 2 2 2 3 4 4 3 3 3 3 3 3 4 4 4 3 3 3 4 4 4
3 3 3 3 3 3 3 3 2 2 2 2 2 2 2 2 3 4 2 2 2 2 2 2 3 3 5 6 7 7 6 5 4 4 4 5 5 4 3 3 4 5 5
3 3 3 3 3 3 3 3 2 2 2 2 2 1 2 2 4 4 4 2 2 2 3 3 3 3 4 3 5 7 7 9 9 6 5 5 6 4 4 4 4 5 6
3 3 3 3 2 2 2 2 2 2 2 2 2 2 1 2 4 4 3 1 2 3 3 3 3 3 4 4 3 4 4 5 7 5 5 6 5 4 4 5 6 6 6
2 2 2 2 2 2 2 2 1 1 1 1 1 2 2 3 4 4 3 1 2 2 2 2 3 3 6 7 4 4 5 5 8 10 10 9 10 10 8 4 3 4 6
2 1 1 2 2 2 1 1 1 1 1 1 1 1 2 2 4 4 3 1 2 2 2 3 4 5 7 7 4 3 5 5 4 5 6 7 6 7 9 4 3 4 5
2 1 1 1 1 2 1 1 1 1 1 1 1 1 2 2 4 4 3 1 2 2 2 2 3 6 7 8 6 4 6 6 3 4 4 3 3 3 3 3 3 3 4
2 2 1 1 1 1 1 1 1 1 1 1 1 1 1 2 2 4 4 4 3 2 2 2 3 6 7 7 5 6 8 6 2 3 3 3 3 3 3 3 4 4 5
2 2 1 1 1 1 1 1 1 1 1 1 1 1 1 1 2 4 5 5 4 2 1 4 5 6 6 4 5 6 5 2 2 3 3 3 3 3 3 3 4 4 4
2 1 1 1 1 1 1 0 0 1 1 1 1 1 1 1 1 2 2 2 3 3 2 4 5 4 4 4 3 3 2 2 2 3 3 3 3 2 2 2 3 3 4
1 1 1 1 1 1 1 1 1 1 2 2 1 1 1 2 3 5 3 2 2 2 1 1 1 1 1 1 1 1 1 2 3 2 3 3 3 3 3 3 3 3 4
1 1 1 1 1 0 0 1 2 2 3 3 3 3 3 4 5 6 6 5 4 2 1 1 1 1 2 2 2 2 2 2 2 2 3 3 3 3 4 4 4 4 5
1 1 1 1 1 0 0 0 1 2 3 3 3 4 4 4 5 5 5 4 3 2 1 1 1 1 1 2 2 2 2 2 2 2 3 3 3 3 4 4 4 4 5
1 1 1 1 1 0 1 0 0 0 1 2 3 4 5 5 5 5 4 2 1 1 1 1 1 1 1 2 2 2 2 2 2 2 3 3 3 3 4 4 4 5 5
1 1 1 1 1 1 1 0 0 1 1 1 2 2 4 5 5 4 3 1 1 1 1 1 1 2 2 2 2 2 2 3 3 3 3 3 3 3 4 4 5 8 7
1 2 2 1 1 1 1 1 1 1 1 1 1 2 2 2 2 2 2 1 1 1 1 1 2 2 2 2 2 2 3 3 3 3 3 3 3 3 4 5 5 5 5
1 2 3 2 1 1 1 1 1 1 1 1 1 3 4 1 1 2 2 1 1 1 2 2 2 2 2 2 2 3 4 3 3 3 3 3 3 4 4 4 5 5 5
1 1 1 1 1 1 1 1 1 1 1 2 2 2 5 2 1 2 2 2 2 2 2 2 2 2 2 2 3 3 3 4 4 4 4 4 4 4 4 4 5 4 4
1 1 2 1 1 2 2 1 1 1 2 2 2 2 2 2 2 2 2 2 2 2 2 2 2 3 3 3 3 3 4 4 4 4 4 4 4 4 4 5 5 5 5
1 1 2 2 2 1 1 2 2 2 2 2 2 2 2 2 2 3 2 2 2 2 2 2 3 4 5 4 4 4 4 5 5 4 5 5 5 5 5 5 5 6 5
1 2 2 2 2 2 2 2 2 2 2 3 3 3 3 3 3 3 3 2 3 3 4 4 3 4 6 7 6 6 9 11 10 6 4 5 6 6 6 6 6 6 6
1 2 2 2 2 2 2 2 3 3 3 3 3 3 3 3 3 3 3 3 3 4 4 4 5 6 7 6 7 10 12 12 12 12 6 4 5 6 6 5 6 6 6
Wind_Direction
161 157 158 165 163 154 152 150 146 141 143 145 147 148 154 160 158 153 171 166 182 222 255 229 243 246 271 286 269 270 277 261 268 284 287 288 284 292 300 296 294 292 295
158 156 158 154 150 146 143 142 139 140 142 144 145 146 156 160 174 183 193 195 197 212 228 227 250 249 251 267 272 261 258 258 257 279 285 289 278 277 283 290 298 298 294
147 150 150 149 147 144 142 140 138 138 140 145 146 154 165 177 195 210 207 200 206 214 217 222 238 233 250 256 262 265 264 269 266 272 281 280 276 275 284 288 287 288 297
140 144 148 151 148 144 141 138 140 143 147 153 155 162 173 181 193 201 219 212 212 221 225 230 234 232 235 242 251 263 268 266 265 272 277 281 279 269 272 284 292 287 293
132 139 143 138 138 138 140 141 141 145 152 154 154 168 175 189 195 194 213 215 212 224 241 245 242 252 256 255 257 256 266 264 265 270 277 285 283 282 277 282 290 298 289
134 136 135 137 137 140 145 145 141 145 151 156 173 183 192 216 214 219 223 216 216 220 236 249 255 261 268 270 275 275 269 269 266 263 271 275 282 277 279 287 291 299 296
135 136 139 138 139 147 151 146 149 158 159 166 180 192 213 231 229 227 233 232 220 226 231 236 256 265 276 268 271 278 280 280 277 272 268 271 282 283 284 287 283 282 283
132 137 137 135 137 144 147 150 159 158 171 187 196 211 225 246 241 237 241 242 231 231 229 230 237 249 262 269 261 268 270 275 279 279 269 268 277 282 266 270 274 283 282
118 126 133 137 137 139 149 159 158 154 183 212 206 209 222 246 249 244 245 231 225 237 242 242 243 241 262 272 270 265 271 276 285 283 280 283 288 294 295 290 286 288 291
113 110 118 129 141 150 152 155 148 163 198 230 239 226 224 235 244 246 256 228 223 227 242 249 256 261 267 270 260 252 266 275 285 291 290 292 290 293 296 288 278 278 288
83 90 99 112 129 139 130 135 151 176 182 229 248 255 239 237 244 248 263 264 221 219 229 238 251 266 272 274 276 259 269 282 274 275 279 281 282 281 277 279 273 268 275
78 79 78 84 106 116 125 144 170 177 188 215 233 268 268 255 255 255 262 282 275 229 231 237 253 274 280 280 281 283 286 287 275 274 277 282 285 288 288 286 279 273 266
69 61 60 49 46 99 147 170 175 186 199 227 224 249 277 287 265 271 272 285 292 288 260 274 280 281 284 278 287 290 289 281 278 280 285 289 286 283 286 291 289 286 286
69 47 48 60 48 38 5 237 193 204 218 236 238 245 267 283 274 263 262 270 279 277 269 272 281 286 291 289 289 289 285 276 281 278 282 288 290 292 289 296 301 303 300
59 42 26 26 52 32 350 321 282 239 242 248 230 236 242 254 269 282 286 268 254 245 251 235 267 272 268 275 276 265 268 281 285 288 290 295 297 297 300 302 300 299 292
41 24 15 15 13 15 13 357 345 322 304 297 290 283 275 280 290 291 290 282 278 267 223 196 242 256 266 269 278 284 281 281 284 284 283 288 292 295 300 303 298 291 288
25 347 333 335 325 312 307 326 345 348 333 319 305 297 298 296 297 301 297 286 272 262 243 235 253 262 277 289 285 280 284 284 282 278 280 279 284 290 293 295 295 295 290
10 340 345 341 332 317 295 283 264 297 324 327 314 310 314 312 307 307 312 324 299 291 253 245 257 267 273 282 288 292 292 296 291 288 282 275 279 286 287 287 289 290 291
354 342 348 348 336 319 310 300 290 291 295 305 320 317 320 323 323 319 326 353 303 291 284 273 274 279 280 279 284 289 291 291 289 287 282 278 279 281 281 285 286 291 294
346 342 345 341 332 318 302 289 288 281 286 294 302 311 323 335 338 331 335 334 306 296 290 282 280 278 279 277 279 282 284 284 285 285 286 284 281 276 276 280 283 286 286
344 340 337 338 330 315 309 302 298 290 286 292 297 296 308 316 303 305 310 310 301 292 289 284 282 281 278 281 280 276 273 274 279 281 281 281 283 281 277 277 278 278 283
344 335 322 315 316 304 301 289 283 283 286 292 297 297 308 322 311 302 304 305 304 297 292 287 282 281 280 276 273 269 267 269 271 275 277 278 280 282 280 276 277 278 280
331 315 310 305 298 291 307 305 293 288 287 287 290 296 299 296 291 289 291 294 296 295 296 292 288 288 289 280 270 260 260 264 265 267 272 274 275 276 275 274 274 276 279
315 298 295 294 293 287 287 289 286 284 283 283 286 286 283 280 283 285 285 284 285 286 286 283 278 277 282 285 279 272 266 266 262 260 256 258 265 270 271 272 273 272 273
290 287 286 281 277 275 277 278 277 277 281 283 282 282 282 281 281 281 280 278 279 280 283 282 280 279 280 281 282 279 279 282 281 273 253 251 256 258 261 264 266 270 271
291 286 284 284 278 272 270 272 274 276 276 279 279 277 276 276 276 276 277 278 281 282 282 280 277 277 279 279 280 283 287 288 284 282 274 260 257 259 259 261 264 265 267